GW2129 Weather Reports


Display with metric or nautical units.
time (UTC)temp
F
wind
direction
speed
MPH
gust
MPH
rain 1hr
in
rain 24hr
in
rain mn
in
humidity
%
barometer
mb
20260901093808 77 89 0.0 1.0 0.00 0.00 0.00 89 1017.0
20260901093307 77 255 0.0 0.0 0.00 0.00 0.00 89 1017.4
20260901092804 77 255 0.0 0.0 0.00 0.00 0.00 89 1017.4
20260901092259 77 246 0.0 1.0 0.00 0.00 0.00 89 1017.5
20260901091755 77 297 0.0 0.0 0.00 0.00 0.00 88 1017.3
20260901091250 77 315 0.0 0.0 0.00 0.00 0.00 88 1017.3
20260901090750 77 226 0.0 1.0 0.00 0.00 0.00 88 1017.1
20260901090244 77 116 0.0 1.0 0.00 0.00 0.00 88 1017.1
20260901085741 78 269 0.0 2.0 0.00 0.00 0.00 87 1017.3
20260901085235 78 164 0.0 2.0 0.00 0.00 0.00 87 1017.1
20260901084726 78 286 1.0 3.0 0.00 0.00 0.00 86 1016.9
20260901084223 78 280 1.0 2.0 0.00 0.00 0.00 86 1017.1
20260901083717 78 274 1.0 3.0 0.00 0.00 0.00 86 1017.2
20260901083217 78 260 0.0 2.0 0.00 0.00 0.00 85 1017.2
20260901082715 78 232 0.0 2.0 0.00 0.00 0.00 85 1017.3
20260901082211 78 291 0.0 3.0 0.00 0.00 0.00 85 1017.1
20260901081707 78 271 2.0 2.0 0.00 0.00 0.00 85 1016.9
20260901081206 78 243 1.0 2.0 0.00 0.00 0.00 85 1017.2
20260901080701 78 264 1.0 2.0 0.00 0.00 0.00 84 1017.0
20260901080200 78 250 3.0 3.0 0.00 0.00 0.00 84 1017.1
20260901075655 78 248 0.0 2.0 0.00 0.00 0.00 84 1017.1
20260901075154 77 238 2.0 3.0 0.00 0.00 0.00 85 1017.1
20260901074654 77 301 0.0 0.0 0.00 0.00 0.00 84 1017.2
20260901074149 78 239 0.0 1.0 0.00 0.00 0.00 84 1017.0
20260901073645 78 255 0.0 1.0 0.00 0.00 0.00 83 1017.2
20260901073141 78 299 0.0 2.0 0.00 0.00 0.00 83 1017.1
20260901072636 78 254 0.0 2.0 0.00 0.00 0.00 83 1017.2
20260901072131 78 257 2.0 2.0 0.00 0.00 0.00 83 1017.3
20260901071625 78 89 0.0 1.0 0.00 0.00 0.00 83 1017.4
20260901071125 79 281 0.0 1.0 0.00 0.00 0.00 82 1017.2
20260901070619 79 315 0.0 2.0 0.00 0.00 0.00 82 1017.1
20260901070114 79 266 1.0 3.0 0.00 0.00 0.00 81 1017.3
20260901065608 79 268 0.0 2.0 0.00 0.00 0.00 81 1017.3
20260901065103 80 277 0.0 2.0 0.00 0.00 0.00 81 1017.1
20260901064601 80 204 4.0 4.0 0.00 0.00 0.00 80 1017.1
20260901064056 80 282 0.0 4.0 0.00 0.00 0.00 80 1016.9
20260901063553 80 224 0.0 3.0 0.00 0.00 0.00 79 1016.8
20260901063049 80 210 2.0 3.0 0.00 0.00 0.00 79 1016.9
20260901062544 80 267 1.0 3.0 0.00 0.00 0.00 78 1016.8
20260901062040 81 118 0.0 3.0 0.00 0.00 0.00 77 1016.9
20260901061537 81 224 0.0 5.0 0.00 0.00 0.00 76 1016.9
20260901061036 81 209 2.0 4.0 0.00 0.00 0.00 76 1016.8
20260901060531 81 242 0.0 5.0 0.00 0.00 0.00 76 1017.1
20260901060026 81 323 0.0 2.0 0.00 0.00 0.00 76 1017.0
20260901055521 81 73 1.0 3.0 0.00 0.00 0.00 75 1017.0
20260901055018 82 119 2.0 4.0 0.00 0.00 0.00 75 1017.0
20260901054515 81 285 1.0 2.0 0.00 0.00 0.00 75 1016.8
20260901054011 82 304 0.0 2.0 0.00 0.00 0.00 74 1016.8
20260901053506 82 93 0.0 2.0 0.00 0.00 0.00 74 1017.0
20260901053002 82 164 0.0 1.0 0.00 0.00 0.00 73 1016.4
20260901052457 82 107 1.0 2.0 0.00 0.00 0.00 72 1016.7
20260901051950 83 22 1.0 5.0 0.00 0.00 0.00 72 1016.9
20260901051446 83 277 2.0 4.0 0.00 0.00 0.00 72 1016.7
20260901050945 83 330 0.0 6.0 0.00 0.00 0.00 72 1016.8
20260901050441 83 207 3.0 3.0 0.00 0.00 0.00 72 1016.5
20260901045940 83 329 2.0 3.0 0.00 0.00 0.00 72 1016.6
20260901045435 83 11 0.0 5.0 0.00 0.00 0.00 71 1016.6
20260901044925 84 244 1.0 4.0 0.00 0.00 0.00 71 1016.4
20260901044421 84 308 2.0 3.0 0.00 0.00 0.00 71 1016.6
20260901043916 84 128 0.0 4.0 0.00 0.00 0.00 70 1016.5
20260901043412 84 188 2.0 3.0 0.00 0.00 0.00 70 1016.4
20260901042907 84 244 0.0 7.0 0.00 0.00 0.00 69 1016.5
20260901042401 85 296 3.0 3.0 0.00 0.00 0.00 69 1016.6
20260901041857 85 239 4.0 5.0 0.00 0.00 0.00 68 1016.4
20260901041351 85 200 1.0 4.0 0.00 0.00 0.00 68 1016.3
20260901040845 85 89 2.0 9.0 0.00 0.00 0.00 67 1016.3
20260901040344 85 190 3.0 7.0 0.00 0.00 0.00 66 1016.6
20260901035839 85 260 1.0 4.0 0.00 0.00 0.00 66 1016.4
20260901035337 86 254 1.0 3.0 0.00 0.00 0.00 65 1016.5
20260901034836 86 224 1.0 2.0 0.00 0.00 0.00 65 1016.2
20260901034332 86 181 1.0 5.0 0.00 0.00 0.00 64 1016.4
20260901033831 86 180 1.0 5.0 0.00 0.00 0.00 64 1016.1
20260901033330 86 154 3.0 5.0 0.00 0.00 0.00 63 1016.0
20260901032829 86 246 1.0 3.0 0.00 0.00 0.00 63 1016.0
20260901032329 86 195 0.0 5.0 0.00 0.00 0.00 62 1016.2
20260901031824 86 279 2.0 3.0 0.00 0.00 0.00 62 1015.9
20260901031320 86 85 2.0 5.0 0.00 0.00 0.00 61 1016.0
20260901030819 87 153 4.0 4.0 0.00 0.00 0.00 60 1015.6
20260901030315 87 213 3.0 3.0 0.00 0.00 0.00 59 1015.7
20260901025814 87 158 1.0 1.0 0.00 0.00 0.00 58 1015.4
20260901025309 87 164 2.0 4.0 0.00 0.00 0.00 58 1015.3
20260901024804 86 66 0.0 4.0 0.00 0.00 0.00 60 1015.2
20260901024303 87 109 0.0 2.0 0.00 0.00 0.00 59 1015.2
20260901023801 87 119 0.0 2.0 0.00 0.00 0.00 58 1015.0
20260901023256 87 230 0.0 3.0 0.00 0.00 0.00 57 1014.9
20260901022751 88 234 2.0 2.0 0.00 0.00 0.00 57 1015.0
20260901022247 88 189 1.0 1.0 0.00 0.00 0.00 57 1014.6
20260901021742 88 217 0.0 1.0 0.00 0.00 0.00 57 1014.5
20260901021238 88 269 0.0 1.0 0.00 0.00 0.00 57 1014.5
20260901020733 88 256 0.0 1.0 0.00 0.00 0.00 56 1014.7
20260901020228 88 240 0.0 1.0 0.00 0.00 0.00 56 1014.5
20260901015723 89 194 0.0 1.0 0.00 0.00 0.00 55 1014.3
20260901015219 89 244 0.0 2.0 0.00 0.00 0.00 55 1014.3
20260901014718 90 144 2.0 2.0 0.00 0.00 0.00 54 1014.4
20260901014214 90 162 0.0 3.0 0.00 0.00 0.00 53 1014.2
20260901013710 90 215 0.0 2.0 0.00 0.00 0.00 54 1014.4
20260901013205 90 194 2.0 3.0 0.00 0.00 0.00 53 1014.2
20260901012701 91 131 3.0 4.0 0.00 0.00 0.00 53 1014.1
20260901012155 91 184 0.0 3.0 0.00 0.00 0.00 52 1014.2
20260901011651 91 142 5.0 5.0 0.00 0.00 0.00 52 1014.2
20260901011150 91 144 3.0 6.0 0.00 0.00 0.00 51 1014.0
20260901010640 92 126 3.0 6.0 0.00 0.00 0.00 50 1014.1
20260901010139 92 206 2.0 5.0 0.00 0.00 0.00 50 1013.8
20260901005638 92 119 3.0 5.0 0.00 0.00 0.00 49 1014.0
20260901005134 93 150 0.0 8.0 0.00 0.00 0.00 49 1013.9
20260901004633 93 163 2.0 9.0 0.00 0.00 0.00 47 1013.6
20260901004128 94 144 0.0 8.0 0.00 0.00 0.00 44 1013.8
20260901003623 94 107 4.0 4.0 0.00 0.00 0.00 42 1013.8
20260901003121 95 198 1.0 1.0 0.00 0.00 0.00 41 1013.7
20260901002616 95 164 0.0 2.0 0.00 0.00 0.00 41 1013.9
20260901002111 96 172 0.0 3.0 0.00 0.00 0.00 39 1013.9
20260901001606 96 183 1.0 3.0 0.00 0.00 0.00 39 1013.5
20260901001101 96 274 0.0 3.0 0.00 0.00 0.00 39 1013.6
20260901000555 96 233 0.0 4.0 0.00 0.00 0.00 39 1013.5
20260901000051 97 148 2.0 3.0 0.00 0.00 0.00 38 1013.6
20260831235545 97 89 0.0 4.0 0.00 0.00 0.00 38 1013.4
20260831235040 97 204 2.0 3.0 0.00 0.00 0.00 37 1013.5
20260831234534 97 153 0.0 4.0 0.00 0.00 0.00 37 1013.4
20260831234030 97 161 3.0 4.0 0.00 0.00 0.00 37 1013.7
20260831233525 97 162 3.0 7.0 0.00 0.00 0.00 37 1013.6
20260831233021 97 80 3.0 4.0 0.00 0.00 0.00 39 1013.5
20260831232516 97 92 1.0 5.0 0.00 0.00 0.00 39 1013.5
20260831232012 97 100 4.0 8.0 0.00 0.00 0.00 38 1013.6
20260831231509 97 75 3.0 9.0 0.00 0.00 0.00 39 1013.3
20260831231004 97 116 3.0 6.0 0.00 0.00 0.00 38 1013.9
20260831230459 98 27 0.0 3.0 0.00 0.00 0.00 39 1013.6
20260831225953 97 124 3.0 6.0 0.00 0.00 0.00 38 1013.7
20260831225449 97 196 0.0 3.0 0.00 0.00 0.00 37 1013.6
20260831224943 98 89 4.0 4.0 0.00 0.00 0.00 37 1013.7
20260831224443 98 167 0.0 4.0 0.00 0.00 0.00 37 1013.7
20260831223938 97 166 2.0 6.0 0.00 0.00 0.00 37 1013.6
20260831223433 97 110 3.0 10.0 0.00 0.00 0.00 37 1013.6
20260831222930 98 298 1.0 5.0 0.00 0.00 0.00 38 1013.8
20260831222426 98 77 2.0 5.0 0.00 0.00 0.00 38 1013.7
20260831221920 98 192 0.0 5.0 0.00 0.00 0.00 38 1013.9
20260831221416 98 4 1.0 4.0 0.00 0.00 0.00 38 1013.7
20260831220911 97 105 4.0 8.0 0.00 0.00 0.00 40 1014.0
20260831220401 97 244 0.0 2.0 0.00 0.00 0.00 40 1013.8
20260831215856 95 130 0.0 5.0 0.00 0.00 0.00 42 1014.2
20260831215352 95 77 3.0 9.0 0.00 0.00 0.00 43 1013.8
20260831214848 95 87 4.0 8.0 0.00 0.00 0.00 42 1014.1
20260831214345 97 121 3.0 9.0 0.00 0.00 0.00 41 1013.8
20260831213840 97 84 5.0 9.0 0.00 0.00 0.00 42 1014.2
20260831213337 97 122 3.0 6.0 0.00 0.00 0.00 40 1014.3
20260831212831 97 91 4.0 6.0 0.00 0.00 0.00 40 1014.1
20260831212328 97 108 4.0 8.0 0.00 0.00 0.00 41 1014.3
20260831211827 97 101 2.0 8.0 0.00 0.00 0.00 42 1014.3
20260831211322 98 106 3.0 6.0 0.00 0.00 0.00 40 1014.4
20260831210821 98 84 2.0 7.0 0.00 0.00 0.00 41 1014.4
20260831210318 99 239 1.0 4.0 0.00 0.00 0.00 40 1014.7
20260831205817 96 141 1.0 5.0 0.00 0.00 0.00 44 1014.6
20260831205313 96 321 2.0 8.0 0.00 0.00 0.00 43 1014.9
20260831204808 97 99 6.0 10.0 0.00 0.00 0.00 42 1015.2
20260831204307 98 114 6.0 7.0 0.00 0.00 0.00 42 1014.9
20260831203806 96 76 2.0 6.0 0.00 0.00 0.00 42 1015.0
20260831203301 96 136 3.0 4.0 0.00 0.00 0.00 44 1015.2
20260831202759 97 188 2.0 3.0 0.00 0.00 0.00 42 1015.4
20260831202254 96 112 2.0 6.0 0.00 0.00 0.00 43 1015.3
20260831201749 98 130 1.0 3.0 0.00 0.00 0.00 43 1015.7
20260831201247 98 281 1.0 4.0 0.00 0.00 0.00 42 1015.5
20260831200738 96 255 3.0 3.0 0.00 0.00 0.00 44 1015.7
20260831200232 96 144 2.0 8.0 0.00 0.00 0.00 45 1015.9
20260831195728 96 120 3.0 5.0 0.00 0.00 0.00 45 1015.8
20260831195224 96 156 5.0 5.0 0.00 0.00 0.00 46 1015.9
20260831194718 98 223 0.0 3.0 0.00 0.00 0.00 44 1015.9
20260831194214 97 238 2.0 3.0 0.00 0.00 0.00 45 1016.0
20260831193707 95 85 4.0 7.0 0.00 0.00 0.00 49 1016.2
20260831193203 95 129 2.0 4.0 0.00 0.00 0.00 48 1016.1
20260831192658 96 212 2.0 4.0 0.00 0.00 0.00 48 1016.3
20260831192153 95 140 3.0 4.0 0.00 0.00 0.00 48 1016.3
20260831191649 94 144 3.0 3.0 0.00 0.00 0.00 49 1016.4
20260831191145 95 76 3.0 7.0 0.00 0.00 0.00 50 1016.8
20260831190640 95 200 0.0 5.0 0.00 0.00 0.00 50 1016.7
20260831190139 94 136 2.0 8.0 0.00 0.00 0.00 50 1016.5
20260831185634 93 94 0.0 3.0 0.00 0.00 0.00 52 1016.7
20260831185130 95 102 0.0 3.0 0.00 0.00 0.00 50 1016.7
20260831184630 94 253 3.0 3.0 0.00 0.00 0.00 52 1016.9
20260831184126 96 283 1.0 4.0 0.00 0.00 0.00 47 1016.9
20260831183625 96 173 2.0 4.0 0.00 0.00 0.00 47 1016.9
20260831183124 94 183 4.0 5.0 0.00 0.00 0.00 50 1016.8
20260831182623 93 353 2.0 6.0 0.00 0.00 0.00 53 1016.8
20260831182120 92 111 1.0 9.0 0.00 0.00 0.00 53 1017.0
20260831181619 93 126 2.0 5.0 0.00 0.00 0.00 53 1017.1
20260831181114 93 94 2.0 4.0 0.00 0.00 0.00 53 1017.1
20260831180609 94 299 2.0 4.0 0.00 0.00 0.00 51 1017.2
20260831180104 96 152 2.0 5.0 0.00 0.00 0.00 49 1017.3
20260831175559 94 220 4.0 4.0 0.00 0.00 0.00 52 1017.4
20260831175056 93 263 3.0 5.0 0.00 0.00 0.00 53 1017.3
20260831174550 91 299 2.0 6.0 0.00 0.00 0.00 55 1017.5
20260831174044 93 158 2.0 9.0 0.00 0.00 0.00 52 1017.5
20260831173543 95 286 2.0 3.0 0.00 0.00 0.00 50 1017.5
20260831173039 93 291 0.0 5.0 0.00 0.00 0.00 56 1017.6
20260831172534 93 252 4.0 5.0 0.00 0.00 0.00 55 1017.9
20260831172029 94 245 2.0 4.0 0.00 0.00 0.00 55 1017.6
20260831171524 94 211 1.0 7.0 0.00 0.00 0.00 55 1018.0
20260831171021 95 233 0.0 3.0 0.00 0.00 0.00 53 1017.8
20260831170517 93 181 1.0 5.0 0.00 0.00 0.00 55 1018.0
20260831170015 94 246 4.0 6.0 0.00 0.00 0.00 56 1017.9
20260831165514 93 255 4.0 6.0 0.00 0.00 0.00 57 1017.9
20260831165012 92 229 2.0 6.0 0.00 0.00 0.00 58 1017.7
20260831164507 91 296 4.0 5.0 0.00 0.00 0.00 61 1018.1
20260831164003 90 85 2.0 3.0 0.00 0.00 0.00 62 1018.1
20260831163457 91 271 2.0 3.0 0.00 0.00 0.00 61 1017.9
20260831162956 90 150 3.0 6.0 0.00 0.00 0.00 62 1017.9
20260831162452 91 267 0.0 5.0 0.00 0.00 0.00 62 1017.7
20260831161949 91 14 0.0 4.0 0.00 0.00 0.00 63 1018.1
20260831161446 91 261 2.0 4.0 0.00 0.00 0.00 63 1018.0
20260831160942 90 315 0.0 2.0 0.00 0.00 0.00 66 1018.0
20260831160441 88 263 1.0 5.0 0.00 0.00 0.00 69 1018.1
20260831155936 88 265 3.0 5.0 0.00 0.00 0.00 69 1017.9
20260831155431 89 228 3.0 5.0 0.00 0.00 0.00 67 1018.0
20260831154926 89 232 2.0 5.0 0.00 0.00 0.00 67 1018.0
20260831154417 89 174 5.0 5.0 0.00 0.00 0.00 67 1018.0
20260831153915 89 244 2.0 6.0 0.00 0.00 0.00 67 1018.0
20260831153411 89 308 2.0 4.0 0.00 0.00 0.00 69 1017.9
20260831152907 89 171 3.0 4.0 0.00 0.00 0.00 69 1018.0
20260831152403 89 175 2.0 7.0 0.00 0.00 0.00 70 1017.8
20260831151858 88 291 1.0 5.0 0.00 0.00 0.00 73 1017.9
20260831151356 87 188 2.0 4.0 0.00 0.00 0.00 73 1018.0
20260831150852 87 77 0.0 3.0 0.00 0.00 0.00 74 1017.9
20260831150348 86 248 3.0 5.0 0.00 0.00 0.00 76 1018.0
20260831145847 86 41 2.0 4.0 0.00 0.00 0.00 76 1017.6
20260831145343 88 301 0.0 6.0 0.00 0.00 0.00 74 1017.8
20260831144839 88 302 2.0 3.0 0.00 0.00 0.00 73 1017.7
20260831144334 87 284 3.0 4.0 0.00 0.00 0.00 76 1017.8
20260831143829 86 208 3.0 3.0 0.00 0.00 0.00 77 1017.5
20260831143324 87 283 2.0 4.0 0.00 0.00 0.00 76 1017.5
20260831142819 86 279 1.0 2.0 0.00 0.00 0.00 77 1017.7
20260831142314 85 348 2.0 6.0 0.00 0.00 0.00 79 1017.5
20260831141809 85 193 1.0 4.0 0.00 0.00 0.00 79 1017.6
20260831141303 84 31 2.0 7.0 0.00 0.00 0.00 81 1017.4
20260831140758 85 249 0.0 4.0 0.00 0.00 0.00 80 1017.5
20260831140252 86 258 0.0 2.0 0.00 0.00 0.00 79 1017.3
20260831135750 85 168 1.0 3.0 0.00 0.00 0.00 81 1017.4
20260831135246 85 303 1.0 2.0 0.00 0.00 0.00 81 1017.4
20260831134742 84 119 0.0 2.0 0.00 0.00 0.00 83 1017.3
20260831134238 82 257 2.0 3.0 0.00 0.00 0.00 85 1017.2
20260831133736 83 322 0.0 2.0 0.00 0.00 0.00 85 1017.2
20260831133231 84 120 0.0 2.0 0.00 0.00 0.00 82 1017.5
20260831132726 83 211 1.0 1.0 0.00 0.00 0.00 84 1017.3
20260831132226 82 78 0.0 2.0 0.00 0.00 0.00 86 1017.1
20260831131721 81 121 0.0 2.0 0.00 0.00 0.00 87 1017.1
20260831131218 80 85 2.0 2.0 0.00 0.00 0.00 91 1017.0
20260831130712 79 89 1.0 2.0 0.00 0.00 0.00 93 1017.0
20260831130208 78 104 0.0 1.0 0.00 0.00 0.00 95 1017.2
20260831125706 77 224 0.0 1.0 0.00 0.00 0.00 95 1017.2
20260831125203 77 108 0.0 3.0 0.00 0.00 0.00 95 1017.0
20260831124657 77 118 1.0 2.0 0.00 0.00 0.00 95 1017.1
20260831124153 77 58 1.0 2.0 0.00 0.00 0.00 96 1017.1
20260831123652 77 57 1.0 1.0 0.00 0.00 0.00 96 1016.9
20260831123151 77 290 1.0 1.0 0.00 0.00 0.00 96 1016.8
20260831122646 76 309 0.0 1.0 0.00 0.00 0.00 96 1016.9
20260831122142 76 305 0.0 1.0 0.00 0.00 0.00 96 1016.8
20260831121641 76 275 0.0 1.0 0.00 0.00 0.00 96 1016.8
20260831121138 76 269 0.0 0.0 0.00 0.00 0.00 96 1016.7
20260831120633 76 156 0.0 1.0 0.00 0.00 0.00 96 1016.9
20260831120128 76 322 0.0 0.0 0.00 0.00 0.00 96 1016.9
20260831115624 76 242 0.0 0.0 0.00 0.00 0.00 96 1016.9
20260831115119 76 256 1.0 1.0 0.00 0.00 0.00 96 1016.7
20260831114618 76 89 0.0 0.0 0.00 0.00 0.00 96 1016.8
20260831114113 76 85 1.0 1.0 0.00 0.00 0.00 96 1016.7
20260831113612 76 22 0.0 0.0 0.00 0.00 0.00 96 1016.9
20260831113108 76 55 0.0 1.0 0.00 0.00 0.00 96 1016.7
20260831112607 76 66 0.0 0.0 0.00 0.00 0.00 96 1016.7
20260831112102 76 55 0.0 0.0 0.00 0.00 0.00 96 1016.8
20260831111558 76 37 0.0 0.0 0.00 0.00 0.00 96 1016.9
20260831111054 76 269 0.0 2.0 0.00 0.00 0.00 96 1016.6
20260831110549 76 235 0.0 2.0 0.00 0.00 0.00 96 1016.6
20260831110044 75 326 0.0 0.0 0.00 0.00 0.00 96 1016.6
20260831105543 75 269 0.0 1.0 0.00 0.00 0.00 95 1016.6
20260831105038 76 325 0.0 1.0 0.00 0.00 0.00 95 1016.7
20260831104534 76 240 0.0 1.0 0.00 0.00 0.00 95 1016.5
20260831104030 76 284 0.0 1.0 0.00 0.00 0.00 95 1016.7
20260831103525 76 241 0.0 2.0 0.00 0.00 0.00 95 1016.6
20260831103021 76 307 0.0 2.0 0.00 0.00 0.00 95 1016.8
20260831102515 76 322 0.0 0.0 0.00 0.00 0.00 95 1016.7
20260831102010 76 333 0.0 0.0 0.00 0.00 0.00 94 1016.6
20260831101505 76 256 0.0 0.0 0.00 0.00 0.00 94 1016.5
20260831101001 76 309 0.0 0.0 0.00 0.00 0.00 94 1016.9
20260831100457 76 309 0.0 0.0 0.00 0.00 0.00 94 1016.9
20260831095952 76 331 0.0 0.0 0.00 0.00 0.00 94 1017.0
20260831095451 77 302 0.0 1.0 0.00 0.00 0.00 93 1016.8
20260831094946 77 269 0.0 1.0 0.00 0.00 0.00 93 1016.8
20260831094442 77 230 0.0 2.0 0.00 0.00 0.00 93 1016.8